LPP3223 SCIE-SCTE

Flight info

Callsign LPP3223
Flight time 0h 49m
Altitude 31000
Route PANEX3N PANEX UQ809 VLD UV200 ISUDO DCT SARTO SARTO2A
Aircraft A21N/M-SDE3FGHIRWY/LB1

Departure

Time 2026-04-21 14:50
Airport Carriel Sur International Airport (SCIE)

Arrival

Time 2026-04-21 15:39
Airport El Tepual International Airport (SCTE)
Time Latitude Longitude Altitude Speed Heading
2026-04-21 14:05 -36.77781 -73.06277 59 ft 0 kts 112°
2026-04-21 14:25 -36.77780 -73.06280 59 ft 2 kts 112°
2026-04-21 14:25 -36.77774 -73.06298 59 ft 2 kts 112°
2026-04-21 14:25 -36.77768 -73.06316 59 ft 2 kts 112°
2026-04-21 14:26 -36.77764 -73.06327 59 ft 1 kts 112°
2026-04-21 14:26 -36.77762 -73.06344 59 ft 2 kts 71°
2026-04-21 14:26 -36.77771 -73.06359 59 ft 1 kts 33°
2026-04-21 14:26 -36.77776 -73.06363 59 ft 1 kts 20°
2026-04-21 14:27 -36.77779 -73.06364 59 ft 0 kts 24°
2026-04-21 14:42 -36.77771 -73.06360 59 ft 2 kts 24°
2026-04-21 14:42 -36.77748 -73.06347 59 ft 5 kts 24°
2026-04-21 14:42 -36.77707 -73.06324 59 ft 8 kts 24°
2026-04-21 14:43 -36.77647 -73.06288 59 ft 11 kts 25°
2026-04-21 14:43 -36.77569 -73.06242 58 ft 13 kts 25°
2026-04-21 14:43 -36.77473 -73.06185 57 ft 16 kts 25°
2026-04-21 14:43 -36.77365 -73.06123 56 ft 18 kts 25°
2026-04-21 14:44 -36.77242 -73.06052 54 ft 20 kts 25°
2026-04-21 14:44 -36.77111 -73.05975 53 ft 21 kts 25°
2026-04-21 14:44 -36.76969 -73.05892 51 ft 23 kts 24°
2026-04-21 14:44 -36.76821 -73.05808 49 ft 23 kts 25°
2026-04-21 14:45 -36.76693 -73.05731 48 ft 16 kts 25°
2026-04-21 14:45 -36.76584 -73.05669 47 ft 18 kts 25°
2026-04-21 14:45 -36.76466 -73.05599 46 ft 19 kts 25°
2026-04-21 14:45 -36.76382 -73.05585 46 ft 7 kts 339°
2026-04-21 14:46 -36.76351 -73.05620 46 ft 0 kts 296°
2026-04-21 14:46 -36.76351 -73.05621 46 ft 0 kts 296°
2026-04-21 14:48 -36.76346 -73.05633 46 ft 5 kts 296°
2026-04-21 14:48 -36.76292 -73.05711 46 ft 18 kts 340°
2026-04-21 14:48 -36.76177 -73.05621 45 ft 19 kts 59°
2026-04-21 14:49 -36.76116 -73.05640 45 ft 10 kts 223°
2026-04-21 14:49 -36.76191 -73.05682 45 ft 40 kts 205°
2026-04-21 14:49 -36.76716 -73.05991 49 ft 122 kts 205°
2026-04-21 14:49 -36.77674 -73.06535 172 ft 174 kts 204°
2026-04-21 14:50 -36.78756 -73.07145 1057 ft 171 kts 206°
2026-04-21 14:50 -36.79871 -73.07561 1948 ft 173 kts 182°
2026-04-21 14:50 -36.81114 -73.07539 2547 ft 189 kts 177°
2026-04-21 14:50 -36.82478 -73.07477 3133 ft 203 kts 177°
2026-04-21 14:51 -36.83941 -73.07400 3660 ft 222 kts 177°
2026-04-21 14:51 -36.85570 -73.07323 4190 ft 243 kts 178°
2026-04-21 14:51 -36.87312 -73.07253 4800 ft 260 kts 178°
2026-04-21 14:51 -36.89134 -73.07188 5601 ft 268 kts 179°
2026-04-21 14:52 -36.91024 -73.07123 6463 ft 274 kts 178°
2026-04-21 14:52 -36.92927 -73.07058 7279 ft 279 kts 179°
2026-04-21 14:52 -36.94878 -73.06989 8057 ft 285 kts 179°
2026-04-21 14:52 -36.96883 -73.06920 8826 ft 291 kts 179°
2026-04-21 14:53 -36.98927 -73.06848 9573 ft 296 kts 179°
2026-04-21 14:53 -37.01015 -73.06775 10319 ft 302 kts 179°
2026-04-21 14:53 -37.03153 -73.06702 10783 ft 318 kts 180°
2026-04-21 14:53 -37.05464 -73.06625 11161 ft 336 kts 180°
2026-04-21 14:54 -37.07854 -73.06545 11616 ft 351 kts 180°
2026-04-21 14:54 -37.10348 -73.06459 12279 ft 357 kts 179°
2026-04-21 14:54 -37.12846 -73.06372 13016 ft 361 kts 180°
2026-04-21 14:54 -37.15445 -73.06280 13671 ft 368 kts 180°
2026-04-21 14:55 -37.18033 -73.06190 14348 ft 373 kts 180°
2026-04-21 14:55 -37.20686 -73.06096 15052 ft 376 kts 179°
2026-04-21 14:55 -37.23326 -73.06002 15745 ft 380 kts 179°
2026-04-21 14:55 -37.26037 -73.05906 16426 ft 383 kts 179°
2026-04-21 14:56 -37.28741 -73.05810 17057 ft 387 kts 179°
2026-04-21 14:56 -37.31460 -73.05715 17682 ft 391 kts 179°
2026-04-21 14:56 -37.34248 -73.05695 18302 ft 394 kts 182°
2026-04-21 14:56 -37.37053 -73.05876 18915 ft 397 kts 185°
2026-04-21 14:57 -37.39853 -73.06117 19494 ft 400 kts 185°
2026-04-21 14:57 -37.42682 -73.06368 20045 ft 404 kts 185°
2026-04-21 14:57 -37.45554 -73.06623 20594 ft 408 kts 185°
2026-04-21 14:57 -37.48434 -73.06876 21128 ft 412 kts 185°
2026-04-21 14:58 -37.51411 -73.07136 21665 ft 415 kts 185°
2026-04-21 14:58 -37.54324 -73.07389 22165 ft 419 kts 185°
2026-04-21 14:58 -37.57316 -73.07649 22649 ft 422 kts 185°
2026-04-21 14:58 -37.60284 -73.07906 23131 ft 425 kts 185°
2026-04-21 14:59 -37.63283 -73.08164 23609 ft 429 kts 185°
2026-04-21 14:59 -37.66295 -73.08423 24065 ft 432 kts 185°
2026-04-21 14:59 -37.69367 -73.08688 24522 ft 435 kts 185°
2026-04-21 14:59 -37.72424 -73.08953 24957 ft 439 kts 185°
2026-04-21 15:00 -37.75542 -73.09216 25380 ft 443 kts 184°
2026-04-21 15:00 -37.78657 -73.09323 25790 ft 446 kts 181°
2026-04-21 15:00 -37.81835 -73.09324 26198 ft 450 kts 181°
2026-04-21 15:00 -37.85016 -73.09298 26620 ft 452 kts 181°
2026-04-21 15:01 -37.88229 -73.09265 27070 ft 453 kts 181°
2026-04-21 15:01 -37.91494 -73.09234 27455 ft 456 kts 181°
2026-04-21 15:01 -37.94751 -73.09206 27801 ft 460 kts 181°
2026-04-21 15:01 -37.98052 -73.09180 28148 ft 463 kts 181°
2026-04-21 15:02 -38.02487 -73.09145 28616 ft 466 kts 181°
2026-04-21 15:02 -38.04664 -73.09133 28795 ft 463 kts 181°
2026-04-21 15:02 -38.07941 -73.09119 28873 ft 457 kts 181°
2026-04-21 15:02 -38.11127 -73.09101 29250 ft 443 kts 181°
2026-04-21 15:03 -38.14181 -73.09078 29704 ft 427 kts 181°
2026-04-21 15:03 -38.17150 -73.09053 30136 ft 412 kts 181°
2026-04-21 15:03 -38.20090 -73.09029 30205 ft 408 kts 181°
2026-04-21 15:03 -38.22944 -73.09006 30071 ft 409 kts 181°
2026-04-21 15:04 -38.25877 -73.08981 29953 ft 410 kts 181°
2026-04-21 15:04 -38.28792 -73.08954 29821 ft 413 kts 181°
2026-04-21 15:04 -38.31745 -73.08921 29753 ft 418 kts 181°
2026-04-21 15:05 -38.37747 -73.08845 30015 ft 431 kts 181°
2026-04-21 15:05 -38.43965 -73.08791 30353 ft 444 kts 181°
2026-04-21 15:05 -38.47148 -73.08768 30516 ft 451 kts 181°
2026-04-21 15:06 -38.50337 -73.08745 30674 ft 457 kts 181°
2026-04-21 15:06 -38.53571 -73.08723 30823 ft 463 kts 181°
2026-04-21 15:06 -38.56884 -73.08700 30979 ft 469 kts 181°
2026-04-21 15:06 -38.60180 -73.08675 31152 ft 472 kts 181°
2026-04-21 15:07 -38.66966 -73.08617 31171 ft 472 kts 181°
2026-04-21 15:07 -38.73824 -73.08560 31177 ft 472 kts 182°
2026-04-21 15:08 -38.80654 -73.08506 31179 ft 472 kts 182°
2026-04-21 15:08 -38.87401 -73.08452 31180 ft 472 kts 182°
2026-04-21 15:09 -38.94125 -73.08398 31180 ft 472 kts 182°
2026-04-21 15:09 -39.00931 -73.08343 31182 ft 472 kts 182°
2026-04-21 15:10 -39.07714 -73.08288 31194 ft 471 kts 182°
2026-04-21 15:10 -39.14422 -73.08230 31199 ft 471 kts 182°
2026-04-21 15:11 -39.21190 -73.08169 31200 ft 471 kts 182°
2026-04-21 15:11 -39.27963 -73.08137 31198 ft 471 kts 183°
2026-04-21 15:12 -39.34625 -73.08218 31202 ft 471 kts 184°
2026-04-21 15:12 -39.41394 -73.08300 31201 ft 471 kts 184°
2026-04-21 15:13 -39.48100 -73.08369 31200 ft 471 kts 184°
2026-04-21 15:13 -39.54835 -73.08435 31204 ft 471 kts 184°
2026-04-21 15:14 -39.61496 -73.08498 31203 ft 471 kts 184°
2026-04-21 15:14 -39.68156 -73.08563 31204 ft 471 kts 184°
2026-04-21 15:15 -39.74827 -73.08599 31203 ft 471 kts 184°
2026-04-21 15:15 -39.81520 -73.08624 31201 ft 471 kts 184°
2026-04-21 15:16 -39.88236 -73.08649 30635 ft 472 kts 183°
2026-04-21 15:16 -39.91602 -73.08661 29990 ft 472 kts 183°
2026-04-21 15:16 -39.94963 -73.08673 29287 ft 472 kts 183°
2026-04-21 15:17 -39.98293 -73.08684 28623 ft 471 kts 183°
2026-04-21 15:17 -40.01638 -73.08697 27954 ft 471 kts 183°
2026-04-21 15:17 -40.05038 -73.08708 27350 ft 468 kts 183°
2026-04-21 15:17 -40.08360 -73.08716 26897 ft 462 kts 183°
2026-04-21 15:18 -40.11652 -73.08726 26414 ft 457 kts 182°
2026-04-21 15:18 -40.14914 -73.08733 25945 ft 452 kts 183°
2026-04-21 15:18 -40.18055 -73.08743 25466 ft 448 kts 182°
2026-04-21 15:18 -40.21195 -73.08754 25016 ft 444 kts 182°
2026-04-21 15:19 -40.24347 -73.08696 24542 ft 441 kts 180°
2026-04-21 15:19 -40.27468 -73.08370 24089 ft 438 kts 175°
2026-04-21 15:19 -40.30484 -73.07773 23654 ft 436 kts 172°
2026-04-21 15:19 -40.33505 -73.07035 23202 ft 433 kts 171°
2026-04-21 15:20 -40.36552 -73.06258 22789 ft 429 kts 170°
2026-04-21 15:20 -40.39513 -73.05501 22365 ft 425 kts 171°
2026-04-21 15:20 -40.42429 -73.04761 21954 ft 422 kts 171°
2026-04-21 15:20 -40.45380 -73.04017 21519 ft 418 kts 171°
2026-04-21 15:21 -40.48276 -73.03290 21111 ft 415 kts 171°
2026-04-21 15:21 -40.51093 -73.02582 20701 ft 412 kts 171°
2026-04-21 15:21 -40.53899 -73.01879 20280 ft 408 kts 171°
2026-04-21 15:21 -40.56724 -73.01170 19876 ft 405 kts 171°
2026-04-21 15:22 -40.59508 -73.00471 19456 ft 401 kts 171°
2026-04-21 15:22 -40.62235 -72.99786 19051 ft 398 kts 171°
2026-04-21 15:22 -40.64993 -72.99093 18637 ft 394 kts 171°
2026-04-21 15:22 -40.67712 -72.98410 18255 ft 391 kts 171°
2026-04-21 15:23 -40.70449 -72.97720 17847 ft 388 kts 171°
2026-04-21 15:23 -40.73125 -72.97046 17426 ft 385 kts 171°
2026-04-21 15:23 -40.75798 -72.96371 16986 ft 383 kts 170°
2026-04-21 15:23 -40.78429 -72.95707 16553 ft 380 kts 171°
2026-04-21 15:24 -40.81072 -72.95038 16101 ft 378 kts 170°
2026-04-21 15:24 -40.83684 -72.94376 15663 ft 375 kts 170°
2026-04-21 15:24 -40.86272 -72.93720 15253 ft 373 kts 171°
2026-04-21 15:24 -40.88828 -72.93072 14816 ft 371 kts 171°
2026-04-21 15:25 -40.91348 -72.92433 14394 ft 369 kts 171°
2026-04-21 15:25 -40.93912 -72.91921 13950 ft 365 kts 176°
2026-04-21 15:25 -40.96435 -72.91822 13518 ft 361 kts 184°
2026-04-21 15:25 -40.98935 -72.92053 13096 ft 358 kts 187°
2026-04-21 15:26 -41.01432 -72.92374 12661 ft 356 kts 188°
2026-04-21 15:26 -41.03894 -72.92702 12249 ft 353 kts 187°
2026-04-21 15:26 -41.06320 -72.93019 11846 ft 351 kts 187°
2026-04-21 15:26 -41.08759 -72.93330 11418 ft 349 kts 187°
2026-04-21 15:27 -41.11180 -72.93634 10987 ft 347 kts 187°
2026-04-21 15:27 -41.13553 -72.93928 10590 ft 344 kts 187°
2026-04-21 15:27 -41.15944 -72.94222 10369 ft 334 kts 187°
2026-04-21 15:27 -41.18215 -72.94500 10299 ft 319 kts 187°
2026-04-21 15:28 -41.20388 -72.94768 10212 ft 305 kts 187°
2026-04-21 15:28 -41.22455 -72.95024 10059 ft 295 kts 188°
2026-04-21 15:28 -41.24499 -72.95280 9726 ft 293 kts 188°
2026-04-21 15:28 -41.26587 -72.95508 9381 ft 291 kts 185°
2026-04-21 15:29 -41.28583 -72.95601 9086 ft 289 kts 184°
2026-04-21 15:29 -41.30611 -72.95669 8773 ft 286 kts 184°
2026-04-21 15:29 -41.32593 -72.95731 8463 ft 283 kts 184°
2026-04-21 15:29 -41.34568 -72.95792 8155 ft 281 kts 184°
2026-04-21 15:30 -41.36527 -72.95854 7841 ft 278 kts 184°
2026-04-21 15:30 -41.38448 -72.95918 7532 ft 276 kts 184°
2026-04-21 15:30 -41.40384 -72.95982 7222 ft 273 kts 184°
2026-04-21 15:30 -41.42273 -72.96045 6942 ft 270 kts 184°
2026-04-21 15:31 -41.44155 -72.96106 6644 ft 268 kts 184°
2026-04-21 15:31 -41.46017 -72.96167 6346 ft 266 kts 184°
2026-04-21 15:31 -41.47863 -72.96230 6050 ft 264 kts 184°
2026-04-21 15:31 -41.49696 -72.96291 5757 ft 262 kts 183°
2026-04-21 15:32 -41.51515 -72.96351 5465 ft 260 kts 183°
2026-04-21 15:32 -41.53326 -72.96411 5174 ft 259 kts 183°
2026-04-21 15:32 -41.55146 -72.96472 4878 ft 259 kts 183°
2026-04-21 15:32 -41.56939 -72.96533 4589 ft 258 kts 182°
2026-04-21 15:33 -41.58735 -72.96594 4304 ft 256 kts 182°
2026-04-21 15:33 -41.60460 -72.96914 4150 ft 245 kts 206°
2026-04-21 15:33 -41.61673 -72.98334 4052 ft 223 kts 246°
2026-04-21 15:33 -41.62005 -73.00307 4034 ft 211 kts 274°
2026-04-21 15:34 -41.61923 -73.02193 4023 ft 197 kts 277°
2026-04-21 15:34 -41.61841 -73.03970 3860 ft 183 kts 276°
2026-04-21 15:34 -41.61784 -73.05603 3683 ft 169 kts 276°
2026-04-21 15:34 -41.61742 -73.07110 3521 ft 153 kts 276°
2026-04-21 15:35 -41.61704 -73.08527 3289 ft 152 kts 280°
2026-04-21 15:35 -41.61274 -73.09727 2855 ft 141 kts 330°
2026-04-21 15:35 -41.60320 -73.10032 2809 ft 147 kts 358°
2026-04-21 15:35 -41.59277 -73.09997 2774 ft 149 kts
2026-04-21 15:36 -41.58236 -73.09921 2770 ft 149 kts
2026-04-21 15:36 -41.57198 -73.09862 2706 ft 150 kts
2026-04-21 15:36 -41.56155 -73.09817 2502 ft 149 kts
2026-04-21 15:36 -41.55123 -73.09783 2302 ft 147 kts
2026-04-21 15:37 -41.54107 -73.09751 2111 ft 146 kts
2026-04-21 15:37 -41.53095 -73.09720 1912 ft 145 kts
2026-04-21 15:37 -41.52084 -73.09689 1715 ft 145 kts
2026-04-21 15:37 -41.51065 -73.09655 1522 ft 145 kts
2026-04-21 15:38 -41.50042 -73.09621 1325 ft 146 kts
2026-04-21 15:38 -41.49027 -73.09586 1125 ft 147 kts
2026-04-21 15:38 -41.48006 -73.09551 929 ft 147 kts
2026-04-21 15:38 -41.46965 -73.09515 727 ft 148 kts
2026-04-21 15:39 -41.45940 -73.09479 527 ft 148 kts
2026-04-21 15:39 -41.44905 -73.09443 328 ft 148 kts
2026-04-21 15:39 -41.43946 -73.09404 289 ft 116 kts
2026-04-21 15:39 -41.43391 -73.09383 284 ft 40 kts
2026-04-21 15:40 -41.43105 -73.09369 283 ft 40 kts
2026-04-21 15:40 -41.42832 -73.09361 281 ft 38 kts
2026-04-21 15:40 -41.42711 -73.09441 280 ft 14 kts 271°
2026-04-21 15:40 -41.42722 -73.09571 279 ft 15 kts 217°
2026-04-21 15:41 -41.42829 -73.09584 280 ft 16 kts 180°
2026-04-21 15:41 -41.42944 -73.09585 281 ft 16 kts 181°
2026-04-21 15:41 -41.43064 -73.09594 281 ft 17 kts 183°
2026-04-21 15:41 -41.43187 -73.09597 282 ft 18 kts 179°
2026-04-21 15:42 -41.43310 -73.09611 283 ft 16 kts 214°
2026-04-21 15:42 -41.43363 -73.09724 283 ft 9 kts 273°
2026-04-21 15:42 -41.43363 -73.09744 283 ft 0 kts 271°